Date,TemperatureHighF,TemperatureAvgF,TemperatureLowF,DewpointHighF,DewpointAvgF,DewpointLowF,HumidityHigh,HumidityAvg,HumidityLow,PressureMaxIn,PressureMinIn,WindSpeedMaxMPH,WindSpeedAvgMPH,GustSpeedMaxMPH,PrecipitationSumIn
2013-1-1,41.5,34.2,30.4,41.3,33.9,30.1,99,99,94,30.44,30.28,4,1,8,0.02
2013-1-2,50.2,35.8,30.0,37.9,32.5,28.9,99,89,58,30.28,30.11,3,0,9,0.01
2013-1-3,48.6,35.7,27.5,38.2,31.2,26.1,99,85,54,30.12,30.01,2,1,9,0.07
2013-1-4,52.2,43.4,38.1,50.3,43.0,37.8,99,99,91,30.27,30.09,1,0,5,0.08
2013-1-5,45.7,43.0,40.5,43.8,41.0,38.8,99,93,79,30.12,30.05,3,0,9,0.02
2013-1-6,45.3,41.0,36.5,44.9,40.7,36.1,99,99,99,30.14,29.90,1,0,5,0.19
2013-1-7,50.2,46.3,41.9,49.7,46.0,41.6,99,99,99,30.13,29.80,2,0,11,0.71
2013-1-8,51.8,47.2,42.8,51.5,47.0,42.5,99,99,99,30.13,29.70,7,2,21,0.81
2013-1-9,50.9,40.6,31.8,49.4,40.3,31.6,99,99,93,29.91,29.66,6,0,16,0.66
2013-1-10,43.9,35.8,32.0,41.7,35.2,31.6,99,98,89,30.07,29.90,1,0,4,0.01
2013-1-11,46.0,33.3,28.0,42.8,31.3,27.6,99,93,62,30.27,30.07,2,0,7,0.00
2013-1-12,45.0,31.4,26.2,37.4,28.4,24.8,99,90,61,30.38,30.26,2,0,8,0.01
2013-1-13,42.4,29.7,22.8,35.4,27.5,22.4,99,92,70,30.44,30.37,1,0,4,0.00
2013-1-14,33.6,29.5,24.1,33.4,29.2,23.9,99,99,99,30.52,30.43,2,0,6,0.02
2013-1-15,46.6,33.6,27.9,45.6,33.0,27.5,99,98,87,30.66,30.51,1,0,6,0.00
2013-1-16,42.3,30.5,24.3,41.1,30.1,24.0,99,98,91,30.63,30.43,2,0,8,0.01
2013-1-17,37.4,33.9,31.1,37.1,33.6,30.9,99,99,99,30.45,30.24,2,1,9,0.00
2013-1-18,52.5,34.8,28.4,44.6,33.4,28.2,99,95,73,30.26,30.19,3,1,8,0.00
2013-1-19,46.2,37.1,34.0,40.2,35.6,33.6,99,95,78,30.30,30.23,4,2,14,0.00
2013-1-20,47.8,37.4,33.6,41.4,35.8,33.4,99,95,75,30.31,30.18,4,2,11,0.00
2013-1-21,46.4,34.8,31.1,40.3,33.5,30.9,99,95,75,30.20,30.06,3,2,9,0.00
2013-1-22,40.6,34.7,28.6,36.2,32.9,28.3,99,93,79,30.07,29.85,2,1,11,0.00
2013-1-23,45.0,39.7,35.6,44.5,39.3,34.9,99,99,95,30.10,29.77,2,0,7,0.37
2013-1-24,43.9,38.5,31.6,43.6,38.2,31.2,99,99,99,30.16,29.97,2,0,6,0.20
2013-1-25,55.2,43.7,34.2,53.2,42.7,33.9,99,96,75,29.99,29.85,1,0,8,0.09
2013-1-26,47.5,40.5,34.9,45.2,40.1,34.6,99,98,90,29.99,29.81,2,0,7,0.30
2013-1-27,43.2,40.5,37.4,42.7,40.2,37.1,99,99,99,30.02,29.94,2,0,8,0.31
2013-1-28,44.2,41.9,38.7,44.0,41.6,38.2,99,99,99,30.09,29.98,1,0,9,0.45
2013-1-29,49.5,46.0,43.9,49.2,45.7,43.6,99,99,99,30.35,30.08,2,0,9,0.26
2013-1-30,50.0,47.8,46.6,49.7,47.6,46.1,99,99,99,30.35,30.28,1,0,5,0.17
2013-1-31,49.8,47.3,44.8,49.6,47.1,44.5,99,99,99,30.37,30.25,2,0,8,0.12
2013-2-1,53.8,45.5,41.7,53.5,44.5,41.5,99,97,85,30.34,30.28,2,0,9,0.00
2013-2-2,60.3,45.7,39.0,49.7,42.9,38.2,99,91,66,30.29,30.17,4,1,10,0.01
2013-2-3,51.1,43.7,39.2,50.5,43.2,38.9,99,98,90,30.25,30.15,1,0,4,0.01
2013-2-4,54.7,46.6,43.3,49.4,44.5,42.8,99,93,74,30.16,29.84,2,0,7,0.00
2013-2-5,53.2,46.2,43.0,49.8,45.4,42.7,99,97,81,29.89,29.77,4,1,12,0.30
2013-2-6,50.0,44.6,40.5,47.2,43.9,40.0,99,97,86,29.97,29.67,4,1,15,0.21
2013-2-7,50.9,40.6,31.6,47.1,39.5,31.2,99,96,85,30.14,29.73,6,1,17,0.20
2013-2-8,50.4,36.8,28.8,48.1,35.5,28.5,99,95,72,30.26,30.14,1,0,4,0.00
2013-2-9,51.3,42.3,36.1,47.5,41.3,35.7,99,96,83,30.27,30.19,1,0,4,0.05
2013-2-10,46.4,41.9,36.5,46.1,41.6,36.1,99,99,95,30.32,30.26,0,0,4,0.00
2013-2-11,50.7,44.5,40.1,50.3,44.3,39.8,99,99,99,30.30,30.25,1,0,4,0.04
2013-2-12,50.2,46.2,45.1,49.7,46.0,44.9,99,99,99,30.37,30.30,1,0,5,0.05
2013-2-13,49.1,42.3,38.5,46.6,41.5,38.2,99,97,90,30.46,30.39,0,0,3,0.02
2013-2-14,50.4,44.2,37.6,50.1,43.9,37.1,99,99,99,30.49,30.44,1,0,4,0.07
2013-2-15,60.1,47.8,39.7,52.4,45.9,39.5,99,94,71,30.48,30.12,3,1,11,0.04
2013-2-16,56.7,44.7,37.6,52.3,43.4,37.1,99,95,78,30.19,30.13,2,0,10,0.08
2013-2-17,50.0,40.1,32.7,45.9,39.1,32.5,99,96,82,30.20,30.03,2,0,7,0.05
2013-2-18,46.0,39.0,32.9,45.8,38.3,32.7,99,98,93,30.04,29.66,2,0,6,0.05
2013-2-19,57.9,43.1,36.0,46.2,40.0,35.5,99,90,62,29.94,29.64,2,0,5,0.01
2013-2-20,37.8,36.0,35.4,37.3,35.8,35.2,99,99,99,29.99,29.94,0,0,2,0.00
2013-2-22,47.1,46.0,46.0,45.8,45.8,45.6,99,99,99,29.78,29.78,4,4,14,0.37
2013-4-14,60.6,58.4,56.3,48.1,46.5,43.4,74,65,58,29.89,29.87,2,1,7,0.06
2013-4-20,46.2,45.9,45.5,45.8,45.6,45.1,99,99,99,30.23,30.22,0,0,2,0.02
2013-4-21,59.5,48.2,42.1,51.7,45.5,41.8,99,91,65,30.28,30.16,2,0,10,0.06
2013-4-22,68.2,52.2,39.6,49.5,40.1,29.0,99,71,28,30.43,30.28,3,1,14,0.01
2013-4-23,70.2,45.8,31.3,43.9,36.1,30.3,99,75,33,30.34,30.17,3,0,9,0.00